CW4489 Marathon FL US current weather conditions

sailwx.info

Wind from 013 at 3 knots gusting 4

Air temperature 27.2° C
Dewpoint 24.9° C

Last reported at 2014-Sep-17 02:39 UTC.
Time now 2014-Sep-17 03:28 UTC

Location: N 24°44' W 081°02'.
View on Google Maps.

See reports from other nearby stations

  
Tides and Currents Weather Stations Pressure Air Temp Water Temp Dewpoint Dewpoint Depression Visibility Wind Speed Wind Dir Waves Ship Positions
date/time (UTC)wind fromknots sea level pressurealtimeterstation pressurevisibilityair tempwater tempwave heightnotes
2014-Sep-17 02:39 013 3 gusting 4 27.2
2014-Sep-17 02:19 018 2 gusting 3 27.2
2014-Sep-17 01:49 021 2 gusting 5 27.2
2014-Sep-17 01:29 013 1 gusting 6 27.2
2014-Sep-17 01:19 032 2 gusting 6 27.2
2014-Sep-17 00:49 355 3 gusting 6 27.2
2014-Sep-17 00:39 040 6 gusting 8 27.2
2014-Sep-17 00:09 024 1 gusting 6 27.8
2014-Sep-16 23:59 035 1 gusting 7 28.3
2014-Sep-16 23:49 043 2 gusting 6 28.9
2014-Sep-16 23:29 349 3 gusting 4 28.9
2014-Sep-16 23:19 009 0 gusting 2 28.9
2014-Sep-16 22:39 037 29.4
2014-Sep-16 22:29 049 30.0
2014-Sep-16 22:19 049 30.0
2014-Sep-16 21:39 126 30.0
2014-Sep-16 21:29 095 30.0
2014-Sep-16 21:09 071 30.6
2014-Sep-16 20:59 101 30.6
2014-Sep-16 20:49 130 31.1
2014-Sep-16 20:39 137 31.1
2014-Sep-16 20:29 067 31.1
2014-Sep-16 20:19 076 31.1
2014-Sep-16 19:59 138 0 gusting 2 32.2
2014-Sep-16 19:55 115 2 gusting 2 32.2
2014-Sep-16 19:46 123 1 gusting 1 33.3
2014-Sep-16 19:39 111 0 gusting 2 33.9
2014-Sep-16 19:29 120 0 gusting 2 33.9
2014-Sep-16 19:19 058 0 gusting 2 34.4
2014-Sep-16 19:09 142 34.4
2014-Sep-16 18:59 101 0 gusting 2 34.4
2014-Sep-16 18:39 110 34.4
2014-Sep-16 18:29 107 1 gusting 4 33.9
2014-Sep-16 17:59 124 0 gusting 3 33.9
2014-Sep-16 17:49 082 0 gusting 2 33.9
2014-Sep-16 17:39 116 0 gusting 2 33.9
2014-Sep-16 17:19 093 0 gusting 2 33.9
2014-Sep-16 17:09 111 2 gusting 3 33.9
2014-Sep-16 16:59 078 1 gusting 4 33.9
2014-Sep-16 16:49 107 1 gusting 2 33.9
2014-Sep-16 16:19 116 0 gusting 5 33.3
2014-Sep-16 15:59 137 33.9
2014-Sep-16 15:29 114 1 gusting 2 33.3
2014-Sep-16 15:19 096 33.3
2014-Sep-16 15:09 150 2 gusting 3 33.3
2014-Sep-16 14:39 082 32.8
2014-Sep-16 14:09 076 0 gusting 3 31.7
2014-Sep-16 13:59 036 31.1
2014-Sep-16 13:49 110 31.1
2014-Sep-16 13:39 075 0 gusting 2 30.6
2014-Sep-16 13:29 060 30.0
2014-Sep-16 13:19 084 29.4
2014-Sep-16 12:59 077 28.9
2014-Sep-16 12:29 067 1 gusting 2 27.8
2014-Sep-16 12:09 068 27.2
2014-Sep-16 11:49 063 27.2
2014-Sep-16 11:39 075 27.2
2014-Sep-16 11:29 071 0 gusting 1 27.2
2014-Sep-16 11:19 067 27.2
2014-Sep-16 11:09 057 0 gusting 0 27.2
2014-Sep-16 10:59 065 27.2
2014-Sep-16 10:49 061 27.2
2014-Sep-16 10:39 045 0 gusting 2 27.2
2014-Sep-16 10:19 074 27.2
2014-Sep-16 10:09 053 27.2
2014-Sep-16 09:59 068 27.2
2014-Sep-16 08:49 034 0 gusting 2 27.8
2014-Sep-16 08:29 076 27.8
2014-Sep-16 07:39 076 27.8
2014-Sep-16 07:29 032 27.2
2014-Sep-16 07:19 044 27.2
2014-Sep-16 07:09 080 0 gusting 2 27.2
2014-Sep-16 06:59 064 27.2
2014-Sep-16 06:49 067 27.8
2014-Sep-16 06:39 072 27.8
2014-Sep-16 06:29 051 27.8
2014-Sep-16 06:19 055 0 gusting 2 27.8
2014-Sep-16 06:09 078 0 gusting 3 27.8
2014-Sep-16 05:59 043 27.8
2014-Sep-16 05:39 051 27.8
2014-Sep-16 05:29 078 27.8
2014-Sep-16 05:19 072 27.8
2014-Sep-16 04:59 069 27.8
2014-Sep-16 04:49 351 0 gusting 2 27.8
2014-Sep-16 04:29 090 27.8
2014-Sep-16 04:09 091 1 gusting 2 27.8
2014-Sep-16 03:59 059 0 gusting 2 27.8
2014-Sep-16 03:49 052 1 gusting 2 27.8
2014-Sep-16 03:39 069 2 gusting 2 27.8
2014-Sep-16 03:29 074 0 gusting 1 27.8
2014-Sep-16 03:19 090 27.8
2014-Sep-16 02:59 071 28.3
2014-Sep-16 02:29 067 28.3
2014-Sep-16 02:19 061 28.3
2014-Sep-16 02:09 061 28.3
2014-Sep-16 01:59 092 28.3
2014-Sep-16 01:49 070 28.3
2014-Sep-16 01:39 071 0 gusting 1 28.3
2014-Sep-16 01:29 090 28.3
2014-Sep-16 01:09 077 0 gusting 1 28.9
2014-Sep-16 00:59 091 28.9
2014-Sep-16 00:29 103 28.9
2014-Sep-16 00:09 103 28.9
2014-Sep-15 23:49 070 0 gusting 3 29.4
2014-Sep-15 22:59 080 30.0
2014-Sep-15 21:59 079 1 gusting 5 31.7
2014-Sep-15 21:49 073 1 gusting 2 31.7
2014-Sep-15 20:59 103 3 gusting 3 32.2
2014-Sep-15 20:49 202 2 gusting 6 32.2
2014-Sep-15 19:59 074 0 gusting 6 32.8
2014-Sep-15 19:19 078 1 gusting 3 32.8
2014-Sep-15 18:49 061 1 gusting 3 32.8
2014-Sep-15 18:19 084 0 gusting 5 33.3
2014-Sep-15 18:09 076 32.8
2014-Sep-15 17:59 099 3 gusting 3 32.8
2014-Sep-15 17:49 081 2 gusting 5 32.8
2014-Sep-15 17:29 139 0 gusting 4 32.8
2014-Sep-15 17:09 063 32.8
2014-Sep-15 16:59 079 0 gusting 4 32.8
2014-Sep-15 16:49 096 2 gusting 6 32.8
2014-Sep-15 16:39 076 0 gusting 5 32.2
2014-Sep-15 16:29 073 2 gusting 4 32.2
2014-Sep-15 15:59 099 32.2
2014-Sep-15 15:49 061 2 gusting 5 32.2
2014-Sep-15 15:29 101 5 gusting 5 32.2
2014-Sep-15 14:49 083 1 gusting 5 31.1
2014-Sep-15 14:29 104 30.0
2014-Sep-15 13:49 078 29.4
2014-Sep-15 13:29 082 0 gusting 3 30.0
2014-Sep-15 13:19 090 2 gusting 4 29.4
2014-Sep-15 13:09 072 28.9
2014-Sep-15 12:49 048 1 gusting 2 28.9
2014-Sep-15 12:29 073 27.8
2014-Sep-15 12:19 074 27.8
2014-Sep-15 11:59 072 27.8
2014-Sep-15 10:59 067 27.8
2014-Sep-15 10:49 067 27.8
2014-Sep-15 10:39 067 27.8
2014-Sep-15 10:29 072 28.3
2014-Sep-15 10:09 071 28.3
2014-Sep-15 09:59 098 0 gusting 2 28.3
2014-Sep-15 09:39 088 0 gusting 2 28.3
2014-Sep-15 09:19 119 1 gusting 3 28.3
2014-Sep-15 08:59 093 1 gusting 2 28.3
2014-Sep-15 08:39 059 1 gusting 2 28.3
2014-Sep-15 08:19 080 28.3
2014-Sep-15 07:49 080 28.3
2014-Sep-15 07:29 076 0 gusting 3 28.3
2014-Sep-15 07:19 098 1 gusting 2 28.3
2014-Sep-15 07:09 087 1 gusting 3 28.3
2014-Sep-15 06:49 101 0 gusting 5 28.3
2014-Sep-15 06:29 088 2 gusting 4 28.3
2014-Sep-15 06:09 071 1 gusting 3 28.3
2014-Sep-15 05:59 075 2 gusting 5 28.3
2014-Sep-15 05:49 119 1 gusting 3 28.3
2014-Sep-15 05:29 061 0 gusting 2 28.3
2014-Sep-15 05:09 081 0 gusting 2 28.3
2014-Sep-15 04:59 076 28.3
2014-Sep-15 04:49 070 0 gusting 3 28.3
2014-Sep-15 04:39 047 28.3
2014-Sep-15 04:09 096 1 gusting 5 28.3
2014-Sep-15 03:59 072 28.3
2014-Sep-15 03:29 123 28.3
2014-Sep-15 03:09 091 0 gusting 4 28.3